User: anonymous   Login
Location: Newark
(45.8667°N, 9.7333°E)
Time: 07:57:50
(UTC+00:00)
Language:

Transit 4A - Orbit

View from above orbital plane
View from above orbital plane
View from above satellite
View from above satellite

Ground track
Ground track

The orbit data is extracted from the following two-line orbital elements,

1   116U 61015A   20020.86436439 -.00000046 +00000-0 +23776-4 0  9998
2   116 066.8077 211.4493 0069649 115.0888 245.7441 13.91764589971145
Epoch (UTC): 20 January 2020 20:44:41
Eccentricity: 0.0069649
inclination: 66.8077°
perigee height: 871 km
apogee height: 973 km
right ascension of ascending node: 211.4493°
argument of perigee: 115.0888°
revolutions per day: 13.91764589
mean anomaly at epoch: 245.7441°
orbit number at epoch: 97114

The dashed part of the orbit path shows where the satellite is in the earth's shadow,  

DLR